VXP515 KILG-KMYR

Flight info

Callsign VXP515
Flight time 1h 14m
Altitude 34000
Route OOD TEBEE HAYDO TRPOD Q409 CRPLR PAACK WYLMS V70 CRE
Aircraft B738/M-SDE2E3FGHIRWXY/LB1

Departure

Time 2026-05-09 20:35
Airport Wilmington Airport (KILG)

Arrival

Time 2026-05-09 21:49
Airport Myrtle Beach International Airport (KMYR)
Time Latitude Longitude Altitude Speed Heading
2026-05-09 20:06 39.67524 -75.59846 90 ft 0 kts 221°
2026-05-09 20:23 39.67528 -75.59841 85 ft 4 kts 221°
2026-05-09 20:23 39.67548 -75.59819 86 ft 4 kts 222°
2026-05-09 20:24 39.67560 -75.59809 87 ft 4 kts 160°
2026-05-09 20:24 39.67575 -75.59817 86 ft 2 kts 172°
2026-05-09 20:24 39.67597 -75.59828 89 ft 4 kts 134°
2026-05-09 20:24 39.67615 -75.59852 86 ft 3 kts 156°
2026-05-09 20:25 39.67622 -75.59856 89 ft 0 kts 159°
2026-05-09 20:29 39.67615 -75.59861 88 ft 2 kts 221°
2026-05-09 20:29 39.67617 -75.59883 84 ft 3 kts 285°
2026-05-09 20:30 39.67622 -75.59908 87 ft 3 kts 286°
2026-05-09 20:30 39.67622 -75.59934 86 ft 4 kts 252°
2026-05-09 20:30 39.67601 -75.59981 87 ft 8 kts 230°
2026-05-09 20:30 39.67559 -75.60030 84 ft 8 kts 216°
2026-05-09 20:31 39.67509 -75.60049 85 ft 7 kts 174°
2026-05-09 20:31 39.67462 -75.60043 86 ft 7 kts 180°
2026-05-09 20:31 39.67420 -75.60068 85 ft 7 kts 211°
2026-05-09 20:31 39.67384 -75.60106 83 ft 7 kts 220°
2026-05-09 20:32 39.67347 -75.60144 86 ft 7 kts 218°
2026-05-09 20:32 39.67303 -75.60191 83 ft 9 kts 220°
2026-05-09 20:32 39.67241 -75.60220 82 ft 10 kts 188°
2026-05-09 20:32 39.67173 -75.60229 84 ft 10 kts 185°
2026-05-09 20:33 39.67108 -75.60236 83 ft 9 kts 185°
2026-05-09 20:33 39.67045 -75.60243 84 ft 9 kts 185°
2026-05-09 20:33 39.66982 -75.60252 68 ft 10 kts 191°
2026-05-09 20:33 39.66941 -75.60313 75 ft 9 kts 266°
2026-05-09 20:34 39.66977 -75.60369 78 ft 9 kts 348°
2026-05-09 20:34 39.67053 -75.60365 73 ft 19 kts
2026-05-09 20:34 39.67446 -75.60322 85 ft 95 kts
2026-05-09 20:34 39.68332 -75.60232 137 ft 155 kts
2026-05-09 20:35 39.69488 -75.60224 732 ft 176 kts 357°
2026-05-09 20:35 39.70669 -75.60717 1454 ft 186 kts 318°
2026-05-09 20:35 39.71393 -75.62121 2081 ft 202 kts 281°
2026-05-09 20:35 39.71340 -75.63997 2441 ft 217 kts 245°
2026-05-09 20:36 39.70459 -75.65557 3216 ft 216 kts 224°
2026-05-09 20:36 39.69321 -75.66848 3990 ft 221 kts 214°
2026-05-09 20:36 39.67772 -75.67354 4523 ft 248 kts 176°
2026-05-09 20:36 39.66178 -75.66422 5325 ft 270 kts 143°
2026-05-09 20:37 39.65151 -75.64309 6161 ft 290 kts 109°
2026-05-09 20:37 39.65114 -75.61652 6962 ft 304 kts 76°
2026-05-09 20:37 39.65856 -75.59056 7765 ft 310 kts 71°
2026-05-09 20:37 39.66355 -75.56319 8553 ft 314 kts 85°
2026-05-09 20:38 39.66459 -75.53474 9386 ft 318 kts 94°
2026-05-09 20:38 39.66315 -75.50588 10173 ft 322 kts 99°
2026-05-09 20:38 39.66019 -75.47628 10559 ft 342 kts 102°
2026-05-09 20:38 39.65611 -75.44473 10751 ft 367 kts 103°
2026-05-09 20:39 39.65140 -75.41135 10937 ft 390 kts 103°
2026-05-09 20:39 39.64450 -75.37666 11250 ft 401 kts 118°
2026-05-09 20:39 39.62908 -75.34742 11863 ft 396 kts 140°
2026-05-09 20:39 39.60699 -75.32701 12657 ft 387 kts 160°
2026-05-09 20:40 39.58163 -75.31668 13396 ft 380 kts 176°
2026-05-09 20:40 39.55549 -75.31648 14039 ft 374 kts 192°
2026-05-09 20:40 39.52963 -75.32148 14673 ft 377 kts 194°
2026-05-09 20:40 39.50355 -75.32671 15282 ft 381 kts 194°
2026-05-09 20:41 39.47723 -75.33182 15964 ft 383 kts 194°
2026-05-09 20:41 39.45075 -75.33676 16663 ft 385 kts 194°
2026-05-09 20:41 39.42412 -75.34163 17332 ft 387 kts 194°
2026-05-09 20:41 39.39733 -75.34650 17981 ft 390 kts 194°
2026-05-09 20:42 39.37036 -75.35140 18565 ft 392 kts 194°
2026-05-09 20:42 39.34317 -75.35633 19100 ft 395 kts 194°
2026-05-09 20:42 39.31618 -75.36123 19555 ft 399 kts 195°
2026-05-09 20:42 39.28855 -75.36625 20022 ft 403 kts 195°
2026-05-09 20:43 39.26064 -75.37131 20487 ft 407 kts 195°
2026-05-09 20:43 39.23248 -75.37641 20952 ft 410 kts 195°
2026-05-09 20:43 39.20408 -75.38156 21398 ft 414 kts 195°
2026-05-09 20:43 39.17545 -75.38670 21838 ft 417 kts 195°
2026-05-09 20:44 39.14655 -75.39187 22257 ft 421 kts 195°
2026-05-09 20:44 39.11738 -75.39706 22685 ft 425 kts 195°
2026-05-09 20:44 39.08803 -75.40228 23047 ft 429 kts 195°
2026-05-09 20:44 39.05831 -75.40757 23380 ft 434 kts 195°
2026-05-09 20:45 39.02830 -75.41290 23720 ft 437 kts 196°
2026-05-09 20:45 38.99813 -75.41824 24103 ft 438 kts 196°
2026-05-09 20:45 38.96787 -75.42358 24484 ft 439 kts 196°
2026-05-09 20:45 38.93747 -75.42896 24836 ft 442 kts 197°
2026-05-09 20:46 38.90668 -75.43442 25097 ft 447 kts 197°
2026-05-09 20:46 38.87613 -75.43984 25380 ft 449 kts 197°
2026-05-09 20:46 38.84500 -75.44534 25682 ft 452 kts 197°
2026-05-09 20:46 38.81373 -75.45085 26004 ft 454 kts 197°
2026-05-09 20:47 38.78240 -75.45636 26339 ft 456 kts 197°
2026-05-09 20:47 38.75090 -75.46190 26644 ft 457 kts 197°
2026-05-09 20:47 38.71932 -75.46746 26954 ft 459 kts 197°
2026-05-09 20:47 38.68764 -75.47303 27236 ft 461 kts 197°
2026-05-09 20:48 38.65569 -75.47865 27488 ft 463 kts 197°
2026-05-09 20:48 38.62374 -75.48425 27840 ft 463 kts 197°
2026-05-09 20:48 38.59176 -75.48983 28286 ft 461 kts 197°
2026-05-09 20:48 38.56002 -75.49536 28763 ft 459 kts 197°
2026-05-09 20:49 38.52841 -75.50089 29197 ft 458 kts 198°
2026-05-09 20:49 38.49687 -75.50641 29587 ft 458 kts 198°
2026-05-09 20:49 38.46533 -75.51194 29998 ft 457 kts 198°
2026-05-09 20:49 38.43381 -75.51745 30315 ft 456 kts 198°
2026-05-09 20:50 38.40234 -75.52295 30602 ft 457 kts 198°
2026-05-09 20:50 38.37097 -75.52906 30879 ft 452 kts 202°
2026-05-09 20:50 38.34134 -75.54035 31222 ft 438 kts 211°
2026-05-09 20:50 38.31434 -75.55588 31605 ft 426 kts 218°
2026-05-09 20:51 38.28967 -75.57576 31946 ft 417 kts 224°
2026-05-09 20:51 38.26591 -75.59684 32261 ft 416 kts 224°
2026-05-09 20:51 38.24212 -75.61792 32589 ft 416 kts 224°
2026-05-09 20:51 38.21837 -75.63885 32897 ft 415 kts 224°
2026-05-09 20:52 38.19464 -75.65964 33223 ft 414 kts 224°
2026-05-09 20:52 38.17086 -75.68040 33554 ft 414 kts 224°
2026-05-09 20:52 38.14715 -75.70103 33873 ft 413 kts 224°
2026-05-09 20:52 38.12329 -75.72179 33881 ft 418 kts 224°
2026-05-09 20:53 38.07544 -75.76328 33902 ft 414 kts 224°
2026-05-09 20:53 38.02824 -75.80405 33893 ft 409 kts 224°
2026-05-09 20:54 37.98114 -75.84480 33894 ft 411 kts 224°
2026-05-09 20:54 37.93375 -75.88575 33904 ft 413 kts 224°
2026-05-09 20:55 37.88645 -75.92651 33904 ft 415 kts 224°
2026-05-09 20:55 37.83855 -75.96772 33918 ft 417 kts 224°
2026-05-09 20:56 37.76648 -76.02957 33907 ft 417 kts 224°
2026-05-09 20:57 37.71837 -76.07079 33914 ft 417 kts 224°
2026-05-09 20:57 37.67844 -76.10496 33911 ft 417 kts 224°
2026-05-09 20:58 37.63035 -76.14605 33883 ft 417 kts 224°
2026-05-09 20:58 37.58089 -76.18492 33897 ft 424 kts 219°
2026-05-09 20:59 37.52843 -76.21955 33890 ft 426 kts 218°
2026-05-09 20:59 37.47585 -76.25373 33889 ft 426 kts 218°
2026-05-09 21:00 37.39714 -76.30556 33889 ft 425 kts 218°
2026-05-09 21:00 37.34480 -76.34021 33888 ft 425 kts 218°
2026-05-09 21:01 37.29286 -76.37459 33893 ft 425 kts 218°
2026-05-09 21:02 37.21439 -76.42643 33889 ft 425 kts 218°
2026-05-09 21:02 37.16206 -76.46092 33852 ft 425 kts 218°
2026-05-09 21:03 37.10970 -76.49536 33886 ft 424 kts 218°
2026-05-09 21:03 37.05741 -76.52972 33900 ft 425 kts 218°
2026-05-09 21:04 37.00496 -76.56414 33882 ft 425 kts 218°
2026-05-09 21:04 36.95283 -76.59829 33839 ft 426 kts 218°
2026-05-09 21:05 36.90033 -76.63260 33897 ft 425 kts 218°
2026-05-09 21:05 36.84796 -76.66679 33913 ft 425 kts 218°
2026-05-09 21:06 36.79554 -76.70095 33918 ft 424 kts 218°
2026-05-09 21:06 36.74323 -76.73501 33916 ft 424 kts 218°
2026-05-09 21:07 36.69088 -76.76902 33911 ft 423 kts 218°
2026-05-09 21:07 36.63866 -76.80290 33908 ft 423 kts 218°
2026-05-09 21:08 36.58682 -76.83649 33911 ft 422 kts 218°
2026-05-09 21:08 36.53473 -76.87019 33902 ft 422 kts 218°
2026-05-09 21:09 36.48265 -76.90383 33890 ft 421 kts 218°
2026-05-09 21:09 36.43067 -76.93735 33900 ft 420 kts 218°
2026-05-09 21:10 36.37877 -76.97078 33907 ft 420 kts 218°
2026-05-09 21:10 36.32683 -77.00418 33908 ft 420 kts 218°
2026-05-09 21:11 36.27485 -77.03755 33873 ft 420 kts 218°
2026-05-09 21:12 36.14541 -77.12044 33904 ft 420 kts 218°
2026-05-09 21:12 36.09354 -77.15357 33909 ft 419 kts 218°
2026-05-09 21:13 36.04170 -77.18663 33881 ft 419 kts 218°
2026-05-09 21:13 35.99001 -77.21955 33914 ft 418 kts 218°
2026-05-09 21:14 35.93840 -77.25238 33926 ft 417 kts 218°
2026-05-09 21:14 35.88602 -77.28405 33922 ft 421 kts 216°
2026-05-09 21:15 35.83261 -77.31395 33920 ft 422 kts 216°
2026-05-09 21:15 35.77917 -77.34378 33912 ft 421 kts 216°
2026-05-09 21:16 35.72623 -77.37360 33914 ft 421 kts 216°
2026-05-09 21:16 35.67308 -77.40365 33914 ft 420 kts 216°
2026-05-09 21:17 35.61993 -77.43371 33919 ft 420 kts 216°
2026-05-09 21:17 35.59327 -77.44880 33664 ft 423 kts 216°
2026-05-09 21:17 35.56659 -77.46384 33347 ft 419 kts 216°
2026-05-09 21:18 35.54022 -77.47865 33087 ft 415 kts 216°
2026-05-09 21:18 35.51387 -77.49350 32840 ft 418 kts 216°
2026-05-09 21:18 35.48735 -77.50849 32594 ft 422 kts 216°
2026-05-09 21:18 35.46065 -77.52356 32341 ft 424 kts 216°
2026-05-09 21:19 35.37954 -77.56917 31603 ft 430 kts 215°
2026-05-09 21:19 35.35263 -77.58426 31363 ft 431 kts 215°
2026-05-09 21:20 35.32529 -77.59957 31126 ft 432 kts 215°
2026-05-09 21:20 35.29788 -77.61492 30883 ft 434 kts 215°
2026-05-09 21:20 35.27039 -77.63030 30649 ft 435 kts 214°
2026-05-09 21:20 35.24278 -77.64573 30422 ft 436 kts 214°
2026-05-09 21:21 35.21514 -77.66118 30182 ft 437 kts 214°
2026-05-09 21:21 35.18747 -77.67663 29939 ft 437 kts 214°
2026-05-09 21:21 35.15998 -77.69191 29472 ft 429 kts 214°
2026-05-09 21:21 35.13330 -77.70673 28781 ft 427 kts 214°
2026-05-09 21:22 35.10633 -77.72175 27983 ft 426 kts 214°
2026-05-09 21:22 35.07939 -77.73675 27291 ft 424 kts 213°
2026-05-09 21:22 35.05265 -77.75163 26700 ft 420 kts 213°
2026-05-09 21:22 35.02625 -77.76629 26140 ft 415 kts 213°
2026-05-09 21:23 35.00008 -77.78083 25574 ft 411 kts 213°
2026-05-09 21:23 34.97410 -77.79525 25006 ft 408 kts 213°
2026-05-09 21:23 34.94837 -77.80953 24457 ft 405 kts 212°
2026-05-09 21:23 34.92281 -77.82371 23913 ft 402 kts 212°
2026-05-09 21:24 34.89744 -77.83778 23380 ft 399 kts 212°
2026-05-09 21:24 34.87225 -77.85173 22806 ft 396 kts 212°
2026-05-09 21:24 34.84734 -77.86551 22323 ft 391 kts 212°
2026-05-09 21:24 34.82270 -77.87913 21785 ft 388 kts 212°
2026-05-09 21:25 34.79820 -77.89268 21232 ft 385 kts 212°
2026-05-09 21:25 34.77383 -77.90615 20673 ft 383 kts 211°
2026-05-09 21:25 34.74970 -77.91948 20121 ft 380 kts 211°
2026-05-09 21:25 34.72572 -77.93271 19595 ft 377 kts 211°
2026-05-09 21:26 34.70193 -77.94582 19078 ft 374 kts 211°
2026-05-09 21:26 34.67833 -77.95883 18561 ft 371 kts 211°
2026-05-09 21:26 34.65485 -77.97176 18000 ft 370 kts 211°
2026-05-09 21:26 34.63141 -77.98467 17428 ft 368 kts 210°
2026-05-09 21:27 34.60816 -77.99745 16959 ft 365 kts 210°
2026-05-09 21:27 34.58517 -78.01008 16518 ft 362 kts 210°
2026-05-09 21:27 34.56262 -78.02245 16077 ft 358 kts 210°
2026-05-09 21:27 34.54007 -78.03482 15598 ft 354 kts 210°
2026-05-09 21:28 34.51768 -78.04710 15100 ft 352 kts 210°
2026-05-09 21:28 34.49541 -78.05932 14607 ft 349 kts 210°
2026-05-09 21:28 34.47336 -78.07140 14158 ft 346 kts 211°
2026-05-09 21:28 34.45148 -78.08338 13686 ft 343 kts 210°
2026-05-09 21:29 34.42980 -78.09525 13159 ft 341 kts 210°
2026-05-09 21:29 34.40825 -78.10705 12621 ft 339 kts 210°
2026-05-09 21:29 34.38673 -78.11882 12077 ft 338 kts 210°
2026-05-09 21:29 34.36575 -78.13024 11840 ft 321 kts 210°
2026-05-09 21:30 34.34592 -78.14100 11587 ft 304 kts 210°
2026-05-09 21:30 34.32709 -78.15124 11341 ft 290 kts 211°
2026-05-09 21:30 34.30911 -78.16103 11097 ft 277 kts 211°
2026-05-09 21:30 34.29183 -78.17047 10868 ft 270 kts 211°
2026-05-09 21:31 34.27476 -78.17982 10547 ft 269 kts 211°
2026-05-09 21:31 34.25788 -78.18907 10227 ft 270 kts 211°
2026-05-09 21:31 34.24076 -78.19843 9868 ft 271 kts 211°
2026-05-09 21:31 34.22348 -78.20787 9405 ft 272 kts 210°
2026-05-09 21:32 34.20630 -78.21723 8937 ft 269 kts 210°
2026-05-09 21:32 34.18931 -78.22646 8484 ft 266 kts 210°
2026-05-09 21:32 34.17254 -78.23558 8035 ft 263 kts 210°
2026-05-09 21:32 34.15598 -78.24458 7578 ft 260 kts 209°
2026-05-09 21:33 34.13958 -78.25349 7141 ft 258 kts 209°
2026-05-09 21:33 34.12336 -78.26246 6710 ft 254 kts 212°
2026-05-09 21:33 34.10885 -78.27416 6285 ft 248 kts 221°
2026-05-09 21:33 34.09554 -78.28716 5835 ft 245 kts 224°
2026-05-09 21:34 34.08344 -78.30148 5523 ft 244 kts 231°
2026-05-09 21:34 34.07263 -78.31769 5195 ft 253 kts 234°
2026-05-09 21:34 34.06190 -78.33465 4855 ft 253 kts 234°
2026-05-09 21:34 34.05136 -78.35143 4603 ft 249 kts 234°
2026-05-09 21:35 34.04116 -78.36759 4363 ft 239 kts 234°
2026-05-09 21:35 34.03139 -78.38308 4082 ft 226 kts 235°
2026-05-09 21:35 34.02191 -78.39808 3826 ft 223 kts 235°
2026-05-09 21:35 34.01253 -78.41289 3577 ft 222 kts 234°
2026-05-09 21:36 34.00320 -78.42759 3405 ft 217 kts 234°
2026-05-09 21:36 33.99411 -78.44189 3306 ft 213 kts 234°
2026-05-09 21:36 33.98512 -78.45602 3199 ft 211 kts 234°
2026-05-09 21:36 33.97615 -78.47016 3107 ft 216 kts 234°
2026-05-09 21:37 33.96699 -78.48460 3024 ft 216 kts 234°
2026-05-09 21:37 33.95794 -78.49887 2995 ft 212 kts 234°
2026-05-09 21:37 33.94904 -78.51288 2986 ft 211 kts 234°
2026-05-09 21:37 33.94017 -78.52683 2975 ft 213 kts 234°
2026-05-09 21:38 33.93117 -78.54101 2978 ft 213 kts 234°
2026-05-09 21:38 33.92213 -78.55523 2979 ft 214 kts 234°
2026-05-09 21:38 33.91306 -78.56950 2990 ft 215 kts 234°
2026-05-09 21:38 33.90396 -78.58380 2983 ft 215 kts 234°
2026-05-09 21:39 33.89485 -78.59813 2983 ft 216 kts 234°
2026-05-09 21:39 33.88569 -78.61253 2991 ft 217 kts 234°
2026-05-09 21:39 33.87638 -78.62715 2990 ft 223 kts 234°
2026-05-09 21:39 33.86685 -78.64213 2985 ft 226 kts 234°
2026-05-09 21:40 33.85733 -78.65707 2979 ft 224 kts 234°
2026-05-09 21:40 33.84784 -78.67195 2978 ft 223 kts 234°
2026-05-09 21:40 33.83841 -78.68672 2979 ft 223 kts 234°
2026-05-09 21:40 33.82898 -78.70149 2980 ft 223 kts 234°
2026-05-09 21:41 33.82001 -78.71659 2977 ft 222 kts 245°
2026-05-09 21:41 33.81714 -78.73451 2992 ft 219 kts 270°
2026-05-09 21:41 33.81934 -78.75238 3000 ft 220 kts 282°
2026-05-09 21:41 33.82340 -78.77038 2995 ft 220 kts 283°
2026-05-09 21:42 33.82754 -78.78798 2985 ft 218 kts 283°
2026-05-09 21:42 33.83163 -78.80550 2842 ft 218 kts 283°
2026-05-09 21:42 33.83557 -78.82260 2635 ft 211 kts 283°
2026-05-09 21:42 33.83938 -78.83932 2435 ft 204 kts 283°
2026-05-09 21:43 33.84305 -78.85565 2227 ft 201 kts 282°
2026-05-09 21:43 33.84669 -78.87196 2102 ft 202 kts 282°
2026-05-09 21:43 33.85033 -78.88846 2048 ft 206 kts 282°
2026-05-09 21:43 33.85401 -78.90499 1970 ft 201 kts 282°
2026-05-09 21:44 33.85758 -78.92099 1978 ft 195 kts 283°
2026-05-09 21:44 33.86037 -78.93638 1971 ft 185 kts 269°
2026-05-09 21:44 33.85685 -78.95088 2003 ft 180 kts 240°
2026-05-09 21:44 33.84823 -78.96134 1996 ft 178 kts 212°
2026-05-09 21:45 33.83624 -78.96443 2017 ft 178 kts 179°
2026-05-09 21:45 33.82818 -78.96339 1989 ft 174 kts 180°
2026-05-09 21:45 33.81631 -78.96193 1966 ft 169 kts 176°
2026-05-09 21:45 33.80477 -78.95956 2001 ft 171 kts 174°
2026-05-09 21:46 33.79297 -78.95671 1973 ft 171 kts 173°
2026-05-09 21:46 33.77761 -78.95286 1687 ft 170 kts 173°
2026-05-09 21:46 33.76641 -78.95003 1448 ft 159 kts 173°
2026-05-09 21:46 33.75607 -78.94743 1261 ft 146 kts 174°
2026-05-09 21:47 33.74932 -78.94576 1165 ft 146 kts 173°
2026-05-09 21:47 33.73948 -78.94330 954 ft 142 kts 172°
2026-05-09 21:47 33.72976 -78.94086 786 ft 145 kts 171°
2026-05-09 21:47 33.71996 -78.93840 615 ft 144 kts 169°
2026-05-09 21:48 33.71038 -78.93598 421 ft 137 kts 171°
2026-05-09 21:48 33.70107 -78.93366 230 ft 135 kts 170°
2026-05-09 21:48 33.69185 -78.93131 54 ft 138 kts 169°
2026-05-09 21:48 33.68357 -78.92921 30 ft 78 kts 170°
2026-05-09 21:49 33.68154 -78.92870 30 ft 9 kts 166°
2026-05-09 21:49 33.68126 -78.92819 31 ft 8 kts 72°
2026-05-09 21:49 33.68143 -78.92757 30 ft 7 kts 72°
2026-05-09 21:49 33.68160 -78.92703 31 ft 7 kts 69°
2026-05-09 21:50 33.68172 -78.92644 31 ft 8 kts 91°
2026-05-09 21:50 33.68160 -78.92574 31 ft 9 kts 102°
2026-05-09 21:50 33.68152 -78.92535 29 ft 2 kts 118°
2026-05-09 21:51 33.68141 -78.92519 30 ft 2 kts 133°
2026-05-09 21:51 33.68128 -78.92507 31 ft 3 kts 145°
2026-05-09 21:51 33.68117 -78.92499 31 ft 2 kts 146°
2026-05-09 21:51 33.68098 -78.92484 31 ft 4 kts 149°
2026-05-09 21:52 33.68075 -78.92469 31 ft 3 kts 149°
2026-05-09 21:52 33.68067 -78.92463 31 ft 0 kts 149°